Regional Weather Roundup
Issued by NWS

Home | Current Version | Previous Version | Graphics & Text | Print | Product List | Glossary On
Versions: 1 2 3 4 5 6 7 8 9 10 11 12 13 14 15 16 17 18 19 20 21 22 23 24 25 26 27 28 29 30 31 32 33 34 35 36 37 38 39 40 41 42 43 44 45 46 47 48 49 50
000
ASUS44 KMEG 170510
RWRTN
TENNESSEE HOURLY STATE WEATHER ROUNDUP
NATIONAL WEATHER SERVICE MEMPHIS TN
1100 PM CST TUE JAN 16 2018

TNZ002-004-019-021-049-052-054-088>092-170600-
WEST TENNESSEE

CITY           SKY/WX    TMP DP  RH WIND       PRES   REMARKS
MEMPHIS INTL   FAIR      10   3  73 NW7       30.68F WCI  -1
NWS MEMPHIS      N/A      9 N/A N/A MISG        N/A
JACKSON        CLOUDY     8   1  73 N3        30.68S
DYERSBURG      FAIR       6   0  76 CALM        N/A
SOMERVILLE     CLOUDY     7   0  72 CALM      30.66S
COVINGTON      CLOUDY     7   1  78 W5        30.70F WCI  -2
UNION CITY     CLOUDY     3   0  85 CALM      30.69S
BOLIVAR        CLOUDY     7   0  72 CALM      30.66S
PARIS          CLOUDY    -8 -11  84 CALM      30.64F
HUNTINGDON     CLOUDY     0  -4  85 CALM      30.65F
LEXINGTON      CLOUDY     3   0  85 CALM      30.65F
SELMER         CLEAR      3  -2  78 N5        30.63F WCI  -6
SAVANNAH       PTCLDY     7   0  72 N6        30.64F WCI  -3
$$

TNZ008-025-027-028-033-062-065-066-170600-
NORTH MIDDLE TENNESSEE

CITY           SKY/WX    TMP DP  RH WIND       PRES   REMARKS
NASHVILLE      FAIR       6  -2  69 N9        30.63F WCI  -8
PORTLAND       CLOUDY     3  -2  78 N3        30.60F
CLARKSVILLE    CLOUDY     0  -5  79 NW3       30.64F
SMYRNA         FAIR       5  -1  76 N10       30.64F WCI -10
COOKEVILLE     CLOUDY     0  -4  85 CALM      30.54F
GALLATIN       MOCLDY     3  -2  78 CALM      30.66S
CROSSVILLE     CLOUDY     5   0  79 N6        30.44F WCI  -6
$$

TNZ061-075-076-078-094-096-097-170600-
SOUTH MIDDLE TENNESSEE

CITY           SKY/WX    TMP DP  RH WIND       PRES   REMARKS
FAYETTEVILLE   PTCLDY     9   1  72 N8G16     30.55R WCI  -4
TULLAHOMA      CLEAR      5   0  78 N7        30.53F WCI  -7
WINCHESTER       N/A      7   1  78 N7        30.55S WCI  -5
MCMINNVILLE    CLEAR      3  -2  78 N5        30.55F WCI  -6
COLUMBIA       PTCLDY     7   0  72 N5        30.60F WCI  -2
SHELBYVILLE    PTCLDY     5   0  78 N5        30.59S WCI  -4
$$

TNZ017-018-042-046-047-170600-
NORTHEAST TENNESSEE

CITY           SKY/WX    TMP DP  RH WIND       PRES   REMARKS
TRI CITIES     LGT SNOW  22  19  89 NW5       30.38S FOG     WCI  16
ELIZABETHTON   LGT SNOW  25  23  93 W6        30.36F WCI  18
$$

TNZ012-013-036-069-073-074-170600-
CENTRAL EAST TENNESSEE

CITY           SKY/WX    TMP DP  RH WIND       PRES   REMARKS
KNOXVILLE      CLOUDY    16   9  74 N8        30.48F WCI   5
OAK RIDGE      CLOUDY    15   5  64 N6        30.51R WCI   6
DOWNTOWN KNOXV CLOUDY    16   9  73 CALM      30.50F
GATLINBURG     CLOUDY    18  12  79 NW10      30.47F WCI   6
MORRISTOWN     CLOUDY    18  10  73 N7        30.42F WCI   8
JACKSBORO      PTCLDY    10   3  72 CALM      30.54S
$$

TNZ083-085-099-170600-
SOUTHEAST TENNESSEE

CITY           SKY/WX    TMP DP  RH WIND       PRES   REMARKS
CHATTANOOGA    MOCLDY    16   6  65 NW9       30.52F WCI   4
DAYTON         PTCLDY    14   7  73 N6G13     30.51F WCI   5
$$

SKY/WX REPORTED AS FAIR MEANS FEW OR NO CLOUDS BELOW
12 THOUSAND FEET.





USA.gov is the U.S. government's official web portal to all federal, state and local government web resources and services.